Location: Unspecified
(36.5600°N, 136.6600°E)
Time: 04:39:00
(UTC+09:00)

BlueWalker 3 - Pass Details

Date: 23 June 2024
Orbit: 480 x 491 km, 53.2° (Epoch: 24 July)

Event Time Altitude Azimuth Distance (km) Brightness Sun altitude
Rises 00:33:16 0° 327° (NNW) 2,538 6.1 -29.4°
Reaches altitude 10° 00:37:17 10° 10° (N) 1,656 5.5 -29.2°
Maximum altitude 00:37:59 10° 21° (NNE) 1,630 5.4 -29.2°
Drops below altitude 10° 00:38:43 10° 32° (NNE) 1,656 5.4 -29.2°
Sets 00:42:42 0° 74° (ENE) 2,533 5.9 -29.0°
